(49949) = 1998 QA32 = 1999 XG207

Discovered at Socorro on 1999-12-12 by LINEAR.

Orbit

Orbit type: Main Belt

Note: WebGL enabled browser required.

epoch2024-03-31.0
epoch JD2460400.5
perihelion date2021-03-14.68101
perihelion JD2459288.18101
argument of perihelion (°)217.15349
ascending node (°)349.69433
inclination (°)6.07574
eccentricity0.0678347
perihelion distance (AU)2.0999691
Tisserand w.r.t. Jupiter3.6
ΔV w.r.t. Earth (km/sec)9.2
semimajor axis (AU)2.2527861
mean anomaly (°)324.23004
mean daily motion (°/day)0.29149020
aphelion distance (AU)2.406
period (years)3.38
P-vector [x]-0.89160230
P-vector [y]-0.38586550
P-vector [z]-0.23696658
Q-vector [x]0.45242325
Q-vector [y]-0.78098858
Q-vector [z]-0.43054621
absolute magnitude15.47
phase slope0.15
uncertainty0
referenceMPEC 2024-F50
observations used1895
oppositions19
arc length (days)9841
first opposition used1997
last opposition used2024
residual rms (arc-secs)0.60
perturbers coarse indicatorM-v
perturbers precise indicator003Ek
first observation date used1997-04-09.0
last observation date used2024-03-19.0
computer nameMPCLINUX
JD of orbit computation2456877.793849
perihelion JD uncertainty (days)9.4407E-05
argument of perihelion uncertainty (°)4.3304E-05
ascending node uncertainty (°)3.3159E-05
inclination uncertainty (°)5.7354E-06
eccentricity uncertainty 5.6085E-08
perihelion distance uncertainty (AU)1.2677E-07
Minimum Orbit Intersection Distances (in AU)
for orbit epoch: 2460400.5, reference: E2024-GF4
Mercury1.65708
Venus1.38447
Earth1.09995
Mars0.46829
Jupiter2.55991
Saturn6.73416
Uranus16.2957
Neptune27.4308

Observations

1916 total observations over interval: 1997 04 09.19778 – 2024 03 19.397587
These data are available for download (format description).

Date (UT) J2000 RA J2000 Dec Magn Location Ref
1997 04 09.19778 10 36 49.75 +07 32 54.1 19.3 V 691 – Steward Observatory, Kitt Peak-Spacewatch MPS 81233
1997 04 09.22173 10 36 49.16 +07 32 51.7 19.4 V 691 – Steward Observatory, Kitt Peak-Spacewatch MPS 81233
1997 04 09.24277 10 36 48.64 +07 32 50.6 19.4 V 691 – Steward Observatory, Kitt Peak-Spacewatch MPS 81233
1997 04 13.17535 10 35 38.63 +07 27 02.0 18.6 V 691 – Steward Observatory, Kitt Peak-Spacewatch MPS 16696
1997 04 13.19689 10 35 38.28 +07 26 59.7 18.6 V 691 – Steward Observatory, Kitt Peak-Spacewatch MPS 16696
1997 04 13.21867 10 35 37.91 +07 26 57.7 18.6 V 691 – Steward Observatory, Kitt Peak-Spacewatch MPS 16696
1997 04 29.15443 10 36 14.46 +06 39 18.5 19.4   704 – Lincoln Laboratory ETS, New Mexico MPS 10090
1997 04 29.18292 10 36 14.91 +06 39 10.7 19.5   704 – Lincoln Laboratory ETS, New Mexico MPS 10090
1997 04 29.21151 10 36 15.41 +06 39 04.6 19.5   704 – Lincoln Laboratory ETS, New Mexico MPS 10090
1997 04 29.24010 10 36 15.74 +06 38 58.9 19.7   704 – Lincoln Laboratory ETS, New Mexico MPS 10090
1997 04 29.26855 10 36 16.10 +06 38 50.6 20.5   704 – Lincoln Laboratory ETS, New Mexico MPS 10090
1998 08 17.35139 22 34 58.03 -12 43 55.4 18.6   704 – Lincoln Laboratory ETS, New Mexico MPS 2023
1998 08 17.37267 22 34 56.78 -12 43 59.7 18.8   704 – Lincoln Laboratory ETS, New Mexico MPS 2023
1998 08 17.39374 22 34 55.45 -12 44 04.0 19.3   704 – Lincoln Laboratory ETS, New Mexico MPS 2023
1998 08 17.41482 22 34 53.99 -12 44 08.3 19.0   704 – Lincoln Laboratory ETS, New Mexico MPS 2023
1998 08 17.43577 22 34 52.73 -12 44 12.5 18.7   704 – Lincoln Laboratory ETS, New Mexico MPS 2023
1998 08 23.34618 22 28 42.10 -13 02 58.4 18.7   704 – Lincoln Laboratory ETS, New Mexico MPS 2023
1998 08 23.35839 22 28 41.45 -13 03 02.7 19.0   704 – Lincoln Laboratory ETS, New Mexico MPS 2023
1998 08 23.37086 22 28 40.63 -13 03 02.6 19.0   704 – Lincoln Laboratory ETS, New Mexico MPS 2023
1998 08 23.39536 22 28 38.95 -13 03 06.8 18.8   704 – Lincoln Laboratory ETS, New Mexico MPS 2023
1999 12 12.45068 07 30 36.63 +31 31 13.9 19.2   704 – Lincoln Laboratory ETS, New Mexico MPS 9140
1999 12 12.47135 07 30 35.64 +31 31 17.5 19.4   704 – Lincoln Laboratory ETS, New Mexico MPS 9140
1999 12 12.48907 07 30 34.83 +31 31 20.6 19.4   704 – Lincoln Laboratory ETS, New Mexico MPS 9140
1999 12 12.50710 07 30 33.96 +31 31 24.1 19.4   704 – Lincoln Laboratory ETS, New Mexico MPS 9140
1999 12 15.33381 07 28 14.85 +31 40 39.9 19.1   704 – Lincoln Laboratory ETS, New Mexico MPS 9140
1999 12 15.36597 07 28 13.09 +31 40 47.2 19.2   704 – Lincoln Laboratory ETS, New Mexico MPS 9140
1999 12 15.38152 07 28 12.17 +31 40 49.1 19.4   704 – Lincoln Laboratory ETS, New Mexico MPS 9140
1999 12 15.39727 07 28 11.27 +31 40 52.2 19.3   704 – Lincoln Laboratory ETS, New Mexico MPS 9140
2000 01 02.34153 07 08 11.78 +32 23 09.8 18.8   704 – Lincoln Laboratory ETS, New Mexico MPS 10090
2000 01 02.35958 07 08 10.42 +32 23 09.2 19.3   704 – Lincoln Laboratory ETS, New Mexico MPS 10090
2000 01 02.37780 07 08 09.07 +32 23 10.6 18.6   704 – Lincoln Laboratory ETS, New Mexico MPS 10090
2000 01 29.23852 06 37 01.31 +31 52 28.4 18.9   704 – Lincoln Laboratory ETS, New Mexico MPS 10090
2000 01 29.25397 06 37 00.45 +31 52 25.3 19.1   704 – Lincoln Laboratory ETS, New Mexico MPS 10090
2000 01 29.26964 06 36 59.62 +31 52 22.1 19.1   704 – Lincoln Laboratory ETS, New Mexico MPS 10090
2000 01 29.28573 06 36 58.80 +31 52 18.9 18.8   704 – Lincoln Laboratory ETS, New Mexico MPS 10090
2000 01 30.17054 06 36 15.42 +31 49 28.1 19.1   704 – Lincoln Laboratory ETS, New Mexico MPS 10090
2000 01 30.18540 06 36 14.65 +31 49 26.0 19.0   704 – Lincoln Laboratory ETS, New Mexico MPS 10091
2000 01 30.20023 06 36 13.88 +31 49 23.0 19.3   704 – Lincoln Laboratory ETS, New Mexico MPS 10091
2000 01 30.21509 06 36 13.12 +31 49 20.6 19.8   704 – Lincoln Laboratory ETS, New Mexico MPS 10091
2000 01 30.23000 06 36 12.33 +31 49 17.2 18.9   704 – Lincoln Laboratory ETS, New Mexico MPS 10091
2002 09 06.39808 03 38 53.78 +24 56 35.1 19.8   704 – Lincoln Laboratory ETS, New Mexico MPS 60907
2002 09 06.41256 03 38 54.35 +24 56 41.8 19.8   704 – Lincoln Laboratory ETS, New Mexico MPS 60907
2002 09 06.42708 03 38 54.80 +24 56 45.1 19.9   704 – Lincoln Laboratory ETS, New Mexico MPS 60907
2002 09 06.44158 03 38 55.32 +24 56 50.3 19.6   704 – Lincoln Laboratory ETS, New Mexico MPS 60907
2002 10 04.35375 03 44 09.71 +27 00 59.1 19.3   704 – Lincoln Laboratory ETS, New Mexico MPS 62778
2002 10 04.36926 03 44 09.44 +27 01 02.3 19.5   704 – Lincoln Laboratory ETS, New Mexico MPS 62778
2002 10 04.38468 03 44 09.18 +27 01 06.4 19.9   704 – Lincoln Laboratory ETS, New Mexico MPS 62778
2002 10 04.40013 03 44 08.78 +27 01 07.5 19.6   704 – Lincoln Laboratory ETS, New Mexico MPS 62778
2002 10 10.36282 03 41 58.30 +27 18 29.7 19.2   704 – Lincoln Laboratory ETS, New Mexico MPS 62778
2002 10 10.37855 03 41 57.80 +27 18 31.6 19.4   704 – Lincoln Laboratory ETS, New Mexico MPS 62778
2002 10 10.39433 03 41 57.35 +27 18 34.1 19.4   704 – Lincoln Laboratory ETS, New Mexico MPS 62778
2002 10 12.35429 03 40 58.40 +27 23 18.7 19.3   704 – Lincoln Laboratory ETS, New Mexico MPS 62778
2002 10 12.37116 03 40 57.80 +27 23 21.3 19.4   704 – Lincoln Laboratory ETS, New Mexico MPS 62778
2002 10 12.38793 03 40 57.25 +27 23 23.3 19.2   704 – Lincoln Laboratory ETS, New Mexico MPS 62778
2002 10 12.40476 03 40 56.64 +27 23 25.5 19.2   704 – Lincoln Laboratory ETS, New Mexico MPS 62778
2002 11 06.24834 03 18 41.07 +27 31 31.5 18.4   704 – Lincoln Laboratory ETS, New Mexico MPS 65482
2002 11 06.26507 03 18 39.85 +27 31 29.7 18.6   704 – Lincoln Laboratory ETS, New Mexico MPS 65482
2002 11 06.28237 03 18 38.57 +27 31 27.9 18.8   704 – Lincoln Laboratory ETS, New Mexico MPS 65482
2002 11 06.29928 03 18 37.37 +27 31 26.9 19.0   704 – Lincoln Laboratory ETS, New Mexico MPS 65482
2002 11 06.31630 03 18 36.15 +27 31 24.5 19.0   704 – Lincoln Laboratory ETS, New Mexico MPS 65482
2002 11 14.24412 03 09 12.52 +27 11 27.2 18.4   704 – Lincoln Laboratory ETS, New Mexico MPS 65482
2002 11 14.26122 03 09 11.27 +27 11 24.7 18.6   704 – Lincoln Laboratory ETS, New Mexico MPS 65482
2002 11 14.27847 03 09 10.00 +27 11 21.0 18.6   704 – Lincoln Laboratory ETS, New Mexico MPS 65482
2002 11 14.29588 03 09 08.70 +27 11 18.2 18.6   704 – Lincoln Laboratory ETS, New Mexico MPS 65483
2002 11 14.31290 03 09 07.47 +27 11 15.1 18.3   704 – Lincoln Laboratory ETS, New Mexico MPS 65483
2002 11 17.90176 03 04 52.78 +26 59 03.4 18.4 V 240 – Herrenberg Sternwarte MPS 65483
2002 11 17.91112 03 04 52.19 +26 59 01.8 18.6 V 240 – Herrenberg Sternwarte MPS 65483
2002 12 02.23171 02 49 38.66 +25 57 53.7 19.3   704 – Lincoln Laboratory ETS, New Mexico MPS 69327
2002 12 02.24696 02 49 37.81 +25 57 49.9 19.6   704 – Lincoln Laboratory ETS, New Mexico MPS 69327
2002 12 02.26229 02 49 36.91 +25 57 45.7 19.3   704 – Lincoln Laboratory ETS, New Mexico MPS 69327
2002 12 02.27782 02 49 36.04 +25 57 40.9 19.4   704 – Lincoln Laboratory ETS, New Mexico MPS 69327
2002 12 02.29310 02 49 35.13 +25 57 36.4 19.7   704 – Lincoln Laboratory ETS, New Mexico MPS 69327
2002 12 05.21592 02 47 03.20 +25 44 01.0 19.5   704 – Lincoln Laboratory ETS, New Mexico MPS 69327
2002 12 05.23180 02 47 02.46 +25 43 55.9 19.4   704 – Lincoln Laboratory ETS, New Mexico MPS 69327
2002 12 05.24731 02 47 01.60 +25 43 51.5 19.5   704 – Lincoln Laboratory ETS, New Mexico MPS 69327
2002 12 05.26259 02 47 00.77 +25 43 47.4 19.3   704 – Lincoln Laboratory ETS, New Mexico MPS 69327
2002 12 05.27811 02 47 00.01 +25 43 43.3 19.2   704 – Lincoln Laboratory ETS, New Mexico MPS 69327
2002 12 27.15486 02 36 56.70 +24 16 46.9 19.1   644 – Palomar Mountain/NEAT MPS 72986
2002 12 27.17502 02 36 56.55 +24 16 43.4 19.0   644 – Palomar Mountain/NEAT MPS 72986
2002 12 27.19645 02 36 56.41 +24 16 39.7 19.2   644 – Palomar Mountain/NEAT MPS 72986
2003 01 20.09619 02 44 16.00 +23 44 57.4 20.0   644 – Palomar Mountain/NEAT MPS 72986
2003 01 20.11719 02 44 16.80 +23 44 57.8 20.4   644 – Palomar Mountain/NEAT MPS 72986
2003 01 20.13821 02 44 17.62 +23 44 57.6 19.2   644 – Palomar Mountain/NEAT MPS 72986
